Weather History for Peru, IL

Change the Weather History Date:

Tuesday, February 25, 2014

  Actual Average Record
Temperature  
Mean Temperature 14 °F -  
Max Temperature 20 °F 37 °F 68 °F (1976)
Min Temperature 7 °F 19 °F -6 °F (1967)
Degree Days  
Heating Degree Days 52    
Moisture  
Dew Point 6 °F    
Average Humidity 71    
Maximum Humidity 88    
Minimum Humidity 54    
Precipitation  
Precipitation 0.00 in - - ()
Sea Level Pressure  
Sea Level Pressure 30.25 in    
Wind  
Wind Speed 13 mph (WNW)    
Max Wind Speed 25 mph    
Max Gust Speed 33 mph    
Visibility 9 miles    
Events Snow    
Averages and records for this station are not official NWS values.
T = Trace of Precipitation, MM = Missing Value Source: NWS Daily Summary

Daily Weather History Graph

Daily Weather History Graph

Search for Another Location

Airport:

Trip Planner

Search our weather history database for the weather conditions in past years. The results will help you decide how hot, cold, wet, or windy it might be!

Date:

Astronomy

Feb. 25, 2014 Rise Set
Actual Time 6:37 AM CST 5:42 PM CST
Civil Twilight 6:09 AM CST 6:10 PM CST
Nautical Twilight 5:37 AM CST 6:42 PM CST
Astronomical Twilight 5:05 AM CST 7:14 PM CST
Moon 3:33 AM CST (2/25) 1:46 PM CST (2/25)
Length of Visible Light 12h 01m
Length of Day
11h 05m
Waning Crescent, 18% of the Moon is Illuminated
Feb 25
Waning Crescent
Mar 1
New
Mar 8
First Quarter
Mar 16
Full
Mar 23
Last Quarter

Hourly Weather History & Observations

Time (CST) Temp. Windchill Dew Point Humidity Pressure Visibility Wind Dir Wind Speed Gust Speed Precip Events Conditions
12:15 AM 18.3 °F 5.9 °F 12.2 °F 77% 30.26 in 2.5 mi WNW 11.5 mph - N/A Snow Light Snow
12:35 AM 17.6 °F 6.4 °F 13.6 °F 84% 30.26 in 2.5 mi WNW 9.2 mph - N/A Snow Light Snow
12:55 AM 17.6 °F 6.4 °F 13.8 °F 85% 30.26 in 4.0 mi WNW 9.2 mph - N/A   Overcast
1:15 AM 17.6 °F 5.7 °F 14.0 °F 86% 30.25 in 3.0 mi WNW 10.4 mph - N/A Snow Light Snow
1:55 AM 17.6 °F 6.4 °F 14.5 °F 88% 30.25 in 4.0 mi WNW 9.2 mph - N/A Snow Light Snow
2:10 AM 17.6 °F 5.7 °F 14.0 °F 86% 30.25 in 4.0 mi NW 10.4 mph - N/A Snow Light Snow
3:55 AM 16.3 °F 4.1 °F 12.7 °F 86% 30.24 in 7.0 mi WNW 10.4 mph - N/A   Overcast
4:15 AM 15.8 °F 2.7 °F 12.2 °F 86% 30.24 in 7.0 mi WNW 11.5 mph - N/A Snow Light Snow
4:35 AM 15.1 °F 3.3 °F 11.3 °F 85% 30.25 in 10.0 mi WNW 9.2 mph - N/A   Clear
4:50 AM 14.9 °F 5.0 °F 11.3 °F 86% 30.25 in 10.0 mi WNW 6.9 mph - N/A   Clear
5:15 AM 14.9 °F 3.1 °F 11.3 °F 86% 30.25 in 10.0 mi WNW 9.2 mph - N/A   Mostly Cloudy
5:35 AM 14.9 °F 3.1 °F 11.3 °F 86% 30.25 in 10.0 mi WNW 9.2 mph - N/A   Overcast
5:55 AM 14.9 °F 3.1 °F 11.3 °F 86% 30.25 in 10.0 mi WNW 9.2 mph - N/A   Overcast
6:15 AM 14.7 °F 3.8 °F 10.9 °F 85% 30.25 in 10.0 mi WNW 8.1 mph - N/A   Overcast
6:35 AM 14.4 °F 3.3 °F 10.9 °F 86% 30.25 in 10.0 mi WNW 8.1 mph - N/A   Mostly Cloudy
6:55 AM 14.0 °F 2.0 °F 10.8 °F 87% 30.26 in 10.0 mi WNW 9.2 mph - N/A   Mostly Cloudy
7:15 AM 14.4 °F 0.9 °F 10.4 °F 84% 30.26 in 10.0 mi NW 11.5 mph - N/A   Scattered Clouds
7:30 AM 14.4 °F 1.6 °F 10.4 °F 84% 30.26 in 10.0 mi NW 10.4 mph - N/A   Clear
7:55 AM 14.9 °F 2.3 °F 10.4 °F 82% 30.27 in 10.0 mi WNW 10.4 mph - N/A   Clear
8:15 AM 14.9 °F 1.6 °F 10.2 °F 82% 30.27 in 10.0 mi NW 11.5 mph - N/A   Scattered Clouds
8:35 AM 15.8 °F 2.7 °F 10.6 °F 80% 30.27 in 10.0 mi WNW 11.5 mph - N/A   Scattered Clouds
8:55 AM 16.0 °F 4.4 °F 10.4 °F 79% 30.27 in 10.0 mi NW 9.2 mph - N/A   Clear
9:15 AM 16.7 °F 4.5 °F 10.8 °F 77% 30.27 in 10.0 mi WNW 10.4 mph - N/A   Clear
9:35 AM 17.1 °F 5.0 °F 10.6 °F 76% 30.27 in 10.0 mi NW 10.4 mph - N/A   Clear
9:55 AM 16.7 °F 4.5 °F 10.6 °F 77% 30.27 in 10.0 mi WNW 10.4 mph - N/A   Scattered Clouds
10:10 AM 17.4 °F 6.2 °F 10.9 °F 76% 30.26 in 10.0 mi WNW 9.2 mph - N/A   Scattered Clouds
10:35 AM 18.1 °F 6.3 °F 11.3 °F 75% 30.27 in 10.0 mi West 10.4 mph - N/A   Scattered Clouds
11:15 AM 18.5 °F 6.1 °F 11.1 °F 73% 30.27 in 10.0 mi WNW 11.5 mph - N/A   Mostly Cloudy
11:35 AM 19.0 °F 5.6 °F 11.7 °F 73% 30.26 in 10.0 mi NW 13.8 mph - N/A   Scattered Clouds
11:55 AM 20.1 °F 8.1 °F 12.2 °F 71% 30.26 in 10.0 mi West 11.5 mph - N/A   Clear
12:15 PM 20.5 °F 8.6 °F 12.0 °F 70% 30.26 in 10.0 mi WNW 11.5 mph 21.9 mph N/A   Clear
12:35 PM 20.5 °F 6.9 °F 11.7 °F 69% 30.24 in 10.0 mi WNW 15.0 mph 20.7 mph N/A   Clear
12:55 PM 20.1 °F 4.2 °F 11.5 °F 69% 30.24 in 10.0 mi WNW 20.7 mph - N/A   Clear
1:15 PM 19.4 °F 4.5 °F 10.0 °F 67% 30.24 in 10.0 mi WNW 17.3 mph 23.0 mph N/A   Clear
1:35 PM 19.4 °F 4.5 °F 9.3 °F 65% 30.23 in 10.0 mi WNW 17.3 mph 23.0 mph N/A   Scattered Clouds
1:55 PM 18.1 °F 2.4 °F 5.9 °F 59% 30.23 in 10.0 mi WNW 18.4 mph 24.2 mph N/A   Clear
2:15 PM 17.6 °F 2.7 °F 5.5 °F 59% 30.23 in 10.0 mi WNW 16.1 mph 24.2 mph N/A   Clear
2:35 PM 17.6 °F 1.3 °F 3.4 °F 54% 30.23 in 10.0 mi WNW 19.6 mph 24.2 mph N/A   Clear
2:55 PM 16.9 °F 1.2 °F 3.2 °F 55% 30.23 in 10.0 mi WNW 17.3 mph 26.5 mph N/A   Clear
3:15 PM 16.7 °F 2.0 °F 2.8 °F 55% 30.22 in 10.0 mi WNW 15.0 mph 20.7 mph N/A   Clear
3:35 PM 16.5 °F 3.0 °F 2.5 °F 54% 30.21 in 10.0 mi West 12.7 mph 25.3 mph N/A   Clear
3:55 PM 16.3 °F 0.5 °F 3.6 °F 57% 30.21 in 10.0 mi West 17.3 mph 23.0 mph N/A   Clear
4:15 PM 15.3 °F 0.2 °F 2.8 °F 58% 30.21 in 10.0 mi West 15.0 mph - N/A   Clear
4:30 PM 14.7 °F -2.0 °F 1.6 °F 56% 30.21 in 10.0 mi WNW 18.4 mph 25.3 mph N/A   Clear
4:55 PM 14.4 °F -0.4 °F 2.1 °F 58% 30.21 in 10.0 mi WNW 13.8 mph 20.7 mph N/A   Clear
5:15 PM 13.1 °F -5.1 °F -0.2 °F 55% 30.21 in 10.0 mi WNW 20.7 mph 27.6 mph N/A   Clear
5:35 PM 12.4 °F -4.6 °F -0.6 °F 56% 30.21 in 10.0 mi WNW 17.3 mph 21.9 mph N/A   Clear
5:55 PM 12.2 °F -1.8 °F 1.2 °F 61% 30.21 in 10.0 mi WNW 11.5 mph 17.3 mph N/A   Clear
6:10 PM 12.2 °F -3.7 °F 1.2 °F 61% 30.23 in 10.0 mi WNW 15.0 mph - N/A   Clear
6:35 PM 11.5 °F -3.4 °F 1.4 °F 64% 30.23 in 10.0 mi WNW 12.7 mph - N/A   Clear
6:55 PM 10.8 °F -5.6 °F 0.7 °F 64% 30.23 in 10.0 mi WNW 15.0 mph 21.9 mph N/A   Clear
7:15 PM 10.6 °F -5.2 °F 0.5 °F 64% 30.22 in 10.0 mi WNW 13.8 mph 21.9 mph N/A   Clear
7:35 PM 10.2 °F -8.4 °F -0.6 °F 62% 30.24 in 10.0 mi WNW 19.6 mph 26.5 mph N/A   Clear
7:55 PM 9.5 °F -7.8 °F -1.3 °F 62% 30.24 in 10.0 mi WNW 16.1 mph 27.6 mph N/A   Clear
8:15 PM 9.5 °F -10.3 °F -1.1 °F 62% 30.24 in 10.0 mi WNW 21.9 mph 29.9 mph N/A   Clear
8:35 PM 9.3 °F -10.5 °F -1.3 °F 62% 30.24 in 10.0 mi WNW 21.9 mph 28.8 mph N/A   Clear
8:50 PM 9.0 °F -11.8 °F -1.1 °F 64% 30.25 in 10.0 mi WNW 24.2 mph - N/A   Clear
9:15 PM 8.6 °F -11.4 °F -1.3 °F 64% 30.25 in 10.0 mi WNW 21.9 mph 33.4 mph N/A   Clear
9:35 PM 8.4 °F -12.5 °F -1.3 °F 65% 30.26 in 10.0 mi WNW 24.2 mph 31.1 mph N/A   Clear
9:55 PM 8.2 °F -13.2 °F -1.3 °F 65% 30.26 in 10.0 mi WNW 25.3 mph 31.1 mph N/A   Clear
10:15 PM 8.1 °F -13.4 °F -1.3 °F 66% 30.26 in 10.0 mi WNW 25.3 mph 32.2 mph N/A   Clear
10:35 PM 8.1 °F -12.2 °F -0.9 °F 67% 30.27 in 10.0 mi WNW 21.9 mph 29.9 mph N/A   Clear
10:55 PM 8.1 °F -11.7 °F -0.6 °F 68% 30.26 in 10.0 mi WNW 20.7 mph 29.9 mph N/A   Clear
11:15 PM 7.9 °F -13.3 °F -0.4 °F 69% 30.26 in 10.0 mi NW 24.2 mph - N/A   Clear
11:30 PM 7.7 °F -13.5 °F -0.4 °F 70% 30.26 in 10.0 mi NW 24.2 mph 29.9 mph N/A   Clear
11:55 PM 7.3 °F -13.1 °F -0.2 °F 71% 30.27 in 10.0 mi NW 21.9 mph 28.8 mph N/A   Clear